Weather History for KVER - April, 2013

Change the Weather History Date:

Sunday, April 28, 2013

  Actual Average Record
Temperature  
Mean Temperature 59 °F -  
Max Temperature 80 °F 70 °F 90 °F (1956)
Min Temperature 50 °F 48 °F 36 °F (1988)
Degree Days  
Heating Degree Days 6    
Growing Degree Days 9 (Base 50)    
Moisture  
Dew Point 51 °F    
Average Humidity 83    
Maximum Humidity 100    
Minimum Humidity 58    
Precipitation  
Precipitation 0.01 in - - ()
Sea Level Pressure  
Sea Level Pressure 29.94 in    
Wind  
Wind Speed 4 mph (SW)    
Max Wind Speed 9 mph    
Max Gust Speed -    
Visibility 8 miles    
Events      
Averages and records for this station are not official NWS values.
T = Trace of Precipitation, MM = Missing Value Source: NWS Daily Summary

Daily Weather History Graph

Daily Weather History Graph

Search for Another Location

Airport or City:

Trip Planner

Search our weather history database for the weather conditions in past years. The results will help you decide how hot, cold, wet, or windy it might be!

Date:

Astronomy

Apr. 28, 2013 Rise Set
Actual Time 6:16 AM CDT 8:00 PM CDT
Civil Twilight 5:47 AM CDT 8:29 PM CDT
Nautical Twilight 5:13 AM CDT 9:04 PM CDT
Astronomical Twilight 4:36 AM CDT 9:41 PM CDT
Moon 11:30 PM CDT (4/28) 8:34 AM CDT (4/28)
Length of Visible Light 14h 41m
Length of Day
13h 44m
Waning Gibbous, 88% of the Moon is Illuminated
Apr 28
Waning Gibbous
May 2
Last Quarter
May 9
New
May 17
First Quarter
May 24
Full

Hourly Weather History & Observations

Time (CDT) Temp. Dew Point Humidity Pressure Visibility Wind Dir Wind Speed Gust Speed Precip Events Conditions
12:15 AM 50.0 °F 50.0 °F 100% 29.99 in 5.0 mi NNW 3.5 mph - N/A   Overcast
12:35 AM 50.0 °F 50.0 °F 100% 29.99 in 5.0 mi Calm Calm - N/A   Overcast
12:55 AM 50.2 °F 50.2 °F 100% 29.98 in 5.0 mi Calm Calm - N/A   Overcast
1:15 AM 50.2 °F 50.2 °F 100% 29.98 in 5.0 mi Calm Calm - N/A   Overcast
1:35 AM 50.2 °F 50.2 °F 100% 29.98 in 5.0 mi Calm Calm - N/A   Overcast
1:55 AM 50.0 °F 50.0 °F 100% 29.98 in 7.0 mi NW 3.5 mph - N/A   Overcast
2:15 AM 50.0 °F 50.0 °F 100% 29.96 in 5.0 mi Calm Calm - N/A   Overcast
2:35 AM 50.0 °F 50.0 °F 100% 29.96 in 5.0 mi WNW 4.6 mph - N/A   Overcast
2:55 AM 50.0 °F 50.0 °F 100% 29.96 in 5.0 mi WNW 3.5 mph - N/A   Overcast
3:15 AM 50.0 °F 50.0 °F 100% 29.96 in 4.0 mi WNW 5.8 mph - N/A   Overcast
3:35 AM 50.0 °F 50.0 °F 100% 29.96 in 5.0 mi WNW 4.6 mph - N/A   Overcast
3:55 AM 50.0 °F 50.0 °F 100% 29.96 in 7.0 mi NW 3.5 mph - N/A   Overcast
4:15 AM 50.0 °F 50.0 °F 100% 29.96 in 5.0 mi WNW 3.5 mph - N/A   Overcast
4:35 AM 50.2 °F 50.0 °F 99% 29.96 in 5.0 mi NW 3.5 mph - N/A   Overcast
4:55 AM 50.2 °F 50.2 °F 100% 29.96 in 4.0 mi WNW 3.5 mph - N/A   Overcast
5:15 AM 50.4 °F 50.2 °F 99% 29.96 in 4.0 mi WNW 3.5 mph - N/A   Overcast
5:35 AM 50.4 °F 50.2 °F 99% 29.96 in 4.0 mi Calm Calm - N/A   Overcast
5:55 AM 50.4 °F 50.2 °F 99% 29.96 in 4.0 mi Calm Calm - N/A   Overcast
6:15 AM 50.4 °F 50.2 °F 99% 29.96 in 4.0 mi WNW 3.5 mph - N/A   Overcast
6:35 AM 50.2 °F 50.0 °F 99% 29.96 in 3.0 mi NW 4.6 mph - N/A   Overcast
6:55 AM 50.4 °F 50.2 °F 99% 29.98 in 3.0 mi WNW 3.5 mph - N/A   Overcast
7:15 AM 50.5 °F 50.4 °F 99% 29.98 in 3.0 mi Calm Calm - N/A   Overcast
7:35 AM 50.7 °F 50.4 °F 99% 29.99 in 4.0 mi West 3.5 mph - N/A   Overcast
8:15 AM 50.9 °F 50.4 °F 98% 30.00 in 5.0 mi NW 3.5 mph - N/A   Overcast
8:35 AM 51.1 °F 50.7 °F 99% 30.00 in 7.0 mi WNW 3.5 mph - N/A   Overcast
8:55 AM 51.8 °F 50.5 °F 95% 30.00 in 10.0 mi WNW 3.5 mph - N/A   Overcast
9:15 AM 52.5 °F 50.5 °F 93% 30.00 in 10.0 mi WNW 3.5 mph - N/A   Overcast
9:35 AM 53.1 °F 50.7 °F 92% 29.99 in 10.0 mi NW 3.5 mph - N/A   Overcast
9:55 AM 53.6 °F 50.9 °F 91% 29.99 in 10.0 mi West 3.5 mph - N/A   Overcast
10:15 AM 53.8 °F 50.7 °F 89% 30.00 in 10.0 mi West 3.5 mph - N/A   Overcast
10:35 AM 54.1 °F 50.7 °F 88% 29.99 in 10.0 mi West 5.8 mph - N/A   Overcast
10:55 AM 55.0 °F 50.0 °F 83% 29.99 in 10.0 mi West 5.8 mph - N/A   Overcast
11:15 AM 56.1 °F 48.9 °F 77% 29.99 in 10.0 mi WSW 4.6 mph - N/A   Overcast
11:35 AM 56.5 °F 48.6 °F 75% 29.99 in 10.0 mi WSW 5.8 mph - N/A   Overcast
11:55 AM 56.5 °F 48.7 °F 75% 29.99 in 10.0 mi Calm Calm - N/A   Overcast
12:15 PM 57.2 °F 49.1 °F 74% 29.99 in 10.0 mi SW 4.6 mph - N/A   Overcast
12:35 PM 57.4 °F 48.9 °F 73% 29.98 in 10.0 mi SW 3.5 mph - N/A   Overcast
12:55 PM 58.5 °F 49.3 °F 72% 29.98 in 10.0 mi WSW 3.5 mph - N/A   Overcast
1:15 PM 60.1 °F 49.6 °F 68% 29.96 in 10.0 mi SW 4.6 mph - N/A   Overcast
1:35 PM 60.4 °F 50.0 °F 68% 29.96 in 10.0 mi WSW 4.6 mph - N/A   Overcast
1:55 PM 61.3 °F 50.2 °F 67% 29.95 in 10.0 mi SW 3.5 mph - N/A   Mostly Cloudy
2:15 PM 62.2 °F 50.2 °F 65% 29.95 in 10.0 mi Calm Calm - N/A   Scattered Clouds
2:35 PM 63.1 °F 50.9 °F 64% 29.94 in 10.0 mi South 5.8 mph - N/A   Scattered Clouds
2:55 PM 64.2 °F 50.9 °F 62% 29.93 in 10.0 mi SW 6.9 mph - N/A   Scattered Clouds
3:15 PM 64.8 °F 51.3 °F 62% 29.92 in 10.0 mi South 6.9 mph - N/A   Scattered Clouds
3:55 PM 65.8 °F 51.8 °F 60% 29.90 in 10.0 mi SSW 4.6 mph - N/A   Clear
4:15 PM 66.6 °F 51.4 °F 58% 29.89 in 10.0 mi SSW 5.8 mph - N/A   Clear
4:35 PM 67.3 °F 52.0 °F 58% 29.88 in 10.0 mi SSW 5.8 mph - N/A   Clear
4:55 PM 67.3 °F 52.3 °F 59% 29.88 in 10.0 mi South 6.9 mph - N/A   Clear
5:15 PM 67.3 °F 52.3 °F 59% 29.88 in 10.0 mi South 6.9 mph - N/A   Clear
5:35 PM 67.3 °F 52.7 °F 59% 29.87 in 10.0 mi SSE 8.1 mph - N/A   Clear
5:55 PM 68.0 °F 53.1 °F 59% 29.87 in 10.0 mi SSE 8.1 mph - N/A   Clear
6:15 PM 67.8 °F 52.3 °F 58% 29.86 in 10.0 mi SSE 8.1 mph - N/A   Clear
6:35 PM 67.5 °F 52.5 °F 59% 29.85 in 10.0 mi SE 6.9 mph - N/A   Clear
7:15 PM 65.7 °F 52.5 °F 62% 29.85 in 10.0 mi SE 8.1 mph - N/A   Clear
7:35 PM 63.7 °F 52.5 °F 67% 29.85 in 10.0 mi SE 6.9 mph - N/A   Clear
7:55 PM 61.9 °F 52.5 °F 71% 29.85 in 10.0 mi SE 6.9 mph - N/A   Clear
8:15 PM 60.3 °F 52.2 °F 75% 29.85 in 10.0 mi SE 6.9 mph - N/A   Clear
8:35 PM 59.2 °F 52.0 °F 77% 29.86 in 10.0 mi SE 6.9 mph - N/A   Clear
8:55 PM 58.5 °F 51.8 °F 79% 29.86 in 10.0 mi SE 6.9 mph - N/A   Clear
9:15 PM 58.1 °F 51.8 °F 80% 29.88 in 10.0 mi SE 8.1 mph - N/A   Clear
9:35 PM 57.6 °F 51.4 °F 80% 29.88 in 10.0 mi SE 8.1 mph - N/A   Clear
9:55 PM 57.2 °F 51.1 °F 80% 29.88 in 10.0 mi SE 8.1 mph - N/A   Clear
10:15 PM 56.5 °F 50.5 °F 80% 29.88 in 10.0 mi SE 8.1 mph - N/A   Clear
10:55 PM 55.6 °F 50.0 °F 81% 29.87 in 10.0 mi SE 8.1 mph - N/A   Clear
11:15 PM 55.0 °F 49.6 °F 82% 29.87 in 10.0 mi SE 9.2 mph - N/A   Clear
11:35 PM 54.5 °F 49.8 °F 84% 29.86 in 10.0 mi SE 8.1 mph - N/A   Clear
11:55 PM 54.0 °F 50.0 °F 86% 29.86 in 10.0 mi SE 9.2 mph - N/A   Clear